[[{"header":{"parameterUnit":"m.s-1","parameterCategory":1,"la1":30.2991,"la2":30.254,"lo1":-89.0895,"lo2":-89.0444,"dx":0.0017,"dy":0.0017,"nx":28,"ny":28,"refTime":"2022-12-18T15:00:00:Z","depth":0,"parameterNumber":2,"parameterNumberName":"U-component_of_WINDS"},"data":[0,0,0,0,0,0,0,0,0,0,0,0,0,0,0,0,0,0,0,0,0,0,0,0,0,0,0,0,0,0,0,0,0,0,0,0,0,0,0,0,0,0,0,0,0,0,0,0,0,0,0,0,0,0,0,0,0,0,-1.3313,-1.3313,0,-1.3312,-1.3312,-1.3312,-1.3267,-1.3266,-1.3265,-1.3264,-1.3264,-1.3265,-1.3266,0,0,0,0,0,0,0,0,0,0,0,0,0,-1.3277,-1.3278,-1.3313,-1.3313,-1.3313,-1.3312,-1.3312,-1.3312,-1.3267,-1.3266,-1.3264,-1.3263,-1.3264,-1.3265,-1.3266,0,0,0,0,0,0,0,0,0,0,0,0,0,-1.3286,-1.3278,-1.3313,-1.3291,-1.3288,-1.3312,-1.3312,-1.3312,-1.3268,-1.3266,-1.3264,-1.3262,-1.3263,-1.3265,-1.3266,-1.3311,0,0,-1.3271,-1.3272,0,0,0,0,0,0,0,0,-1.3286,-1.3288,-1.3294,-1.3292,-1.329,-1.3288,-1.3299,-1.3312,-1.3268,-1.3276,-1.3264,-1.3262,-1.3273,-1.3274,-1.3278,-1.3311,-1.3311,-1.3271,-1.3272,-1.3273,-1.3274,0,0,0,0,0,0,0,-1.3285,-1.3287,-1.3313,-1.3294,-1.3292,-1.3281,-1.328,-1.3301,-1.3284,-1.3275,-1.3272,-1.3272,-1.3272,-1.3276,-1.3277,-1.3311,-1.3271,-1.3273,-1.3274,-1.3275,-1.3383,-1.3384,0,0,0,0,0,0,-1.3287,-1.3287,-1.3313,-1.3312,-1.3283,-1.3283,-1.3282,-1.329,-1.3284,-1.3281,-1.3273,-1.327,-1.3274,-1.3276,-1.3277,-1.333,-1.3273,-1.3275,-1.3276,-1.3381,-1.3383,-1.3385,0,0,0,0,0,0,-1.3287,-1.329,-1.3313,-1.3299,-1.3301,-1.3285,-1.3295,-1.3291,-1.3295,-1.3283,-1.328,-1.3281,-1.3273,-1.3275,-1.3303,-1.333,-1.3275,-1.3277,-1.3378,-1.3381,-1.3384,-1.3437,0,0,0,0,0,0,-1.3286,-1.329,-1.3307,-1.33,-1.3302,-1.3339,-1.3296,-1.3292,-1.3298,-1.3294,-1.3289,-1.3287,-1.3272,-1.3301,-1.3305,-1.3331,-1.3278,-1.3376,-1.338,-1.3383,-1.3432,-1.3441,-1.3448,0,0,0,0,0,-1.3285,-1.3322,-1.3308,-1.3312,-1.3323,-1.334,-1.3342,-1.3323,-1.3301,-1.3318,-1.3309,-1.3287,-1.3326,-1.3304,-1.3308,-1.3335,-1.3374,-1.3379,-1.3383,-1.3429,-1.3439,-1.3448,0,0,0,0,0,0,-1.3334,-1.3321,-1.3305,-1.3341,-1.3342,-1.3333,-1.3354,-1.3335,-1.3342,-1.3338,-1.3315,-1.3314,-1.3346,-1.3343,-1.332,-1.3379,-1.3346,-1.3351,-1.338,-1.3389,-1.3397,-1.3398,-1.328,0,0,0,0,0,-1.3349,-1.3364,-1.3352,-1.3384,-1.3386,-1.337,-1.3377,-1.3362,-1.3363,-1.3363,-1.3357,-1.3358,-1.3371,-1.338,-1.339,-1.3431,-1.343,-1.3452,-1.3459,-1.3466,-1.3471,-1.3493,-1.3503,-1.3399,-1.3399,-1.3399,0,0,-1.338,-1.3374,-1.3386,-1.3394,-1.3393,-1.341,-1.337,-1.339,-1.3402,-1.3366,-1.3393,-1.3388,-1.3388,-1.3423,-1.3438,-1.3422,-1.3499,-1.3471,-1.3477,-1.3478,-1.3498,-1.3508,-1.3517,-1.3402,-1.3401,-1.3401,0,0,-1.3445,-1.3442,-1.347,-1.3469,-1.3468,-1.3457,-1.3464,-1.3457,-1.3453,-1.3479,-1.3452,-1.3466,-1.3488,-1.349,-1.3493,-1.3558,-1.3538,-1.3562,-1.3604,-1.3625,-1.3634,-1.3641,-1.3665,-1.3674,-1.3567,-1.3568,-1.3568,0,-1.3484,-1.3508,-1.3486,-1.3507,-1.3512,-1.3479,-1.3507,-1.3508,-1.3511,-1.3515,-1.3496,-1.3523,-1.352,-1.3556,-1.3572,-1.3575,-1.3582,-1.3564,-1.3634,-1.3641,-1.3648,-1.367,-1.368,-1.3571,-1.357,-1.357,-1.357,0,-1.3556,-1.3573,-1.3595,-1.3599,-1.3605,-1.363,-1.3612,-1.3622,-1.3607,-1.3598,-1.3625,-1.3621,-1.363,-1.3637,-1.3623,-1.367,-1.366,-1.3638,-1.3605,-1.3661,-1.3682,-1.3691,-1.3575,-1.3574,-1.3573,-1.3572,0,0,-1.3654,-1.3644,-1.3653,-1.3654,-1.365,-1.3663,-1.3685,-1.3694,-1.3704,-1.3706,-1.3725,-1.3744,-1.3724,-1.3728,-1.3713,-1.3731,-1.3785,-1.3707,-1.3707,-1.3723,-1.3838,-1.3856,-1.3866,-1.377,-1.3772,-1.3773,-1.3838,0,-1.3718,-1.3757,-1.3737,-1.3778,-1.3794,-1.3763,-1.3783,-1.3783,-1.3775,-1.3787,-1.3778,-1.3792,-1.3763,-1.3766,-1.3783,-1.3775,-1.3808,-1.3769,-1.3789,-1.379,-1.3792,-1.3877,-1.3896,-1.3958,-1.3846,-1.3848,-1.3849,0,-1.3799,-1.3805,-1.3847,-1.384,-1.3846,-1.3864,-1.3871,-1.3883,-1.3882,-1.3875,-1.3879,-1.386,-1.3882,-1.3848,-1.3879,-1.3853,-1.3859,-1.3857,-1.3859,-1.3861,-1.3824,-1.3883,-1.3977,-1.3987,-1.3861,-1.386,-1.3859,0,-1.3867,-1.3886,-1.3913,-1.3915,-1.3908,-1.3921,-1.3919,-1.3916,-1.3923,-1.3928,-1.3933,-1.3941,-1.3946,-1.3953,-1.3936,-1.3913,-1.397,-1.3934,-1.3965,-1.3966,-1.398,-1.398,-1.4078,-1.3982,-1.3982,-1.3981,-1.3981,0,-1.3942,-1.397,-1.3944,-1.3962,-1.3992,-1.3969,-1.3999,-1.3993,-1.3991,-1.4007,-1.398,-1.3996,-1.3972,-1.3985,-1.3972,-1.4,-1.4002,-1.3998,-1.3995,-1.4001,-1.4002,-1.4007,-1.4003,-1.3984,-1.3983,-1.3983,-1.3982,0,-1.4025,-1.4009,-1.4037,-1.4027,-1.4025,-1.4048,-1.404,-1.4056,-1.4045,-1.4066,-1.4069,-1.4053,-1.4067,-1.4051,-1.4064,-1.4055,-1.4093,-1.4083,-1.4094,-1.4092,-1.4124,-1.4122,-1.423,-1.4243,-1.4137,-1.4138,-1.4139,0,-1.4074,-1.4095,-1.4087,-1.4095,-1.4094,-1.4108,-1.4115,-1.4093,-1.4101,-1.4101,-1.4117,-1.4129,-1.4138,-1.4162,-1.4152,-1.4162,-1.4152,-1.4189,-1.4153,-1.416,-1.4154,-1.4154,-1.4156,-1.4197,-1.4198,-1.4199,-1.42,0,-1.4165,-1.4155,-1.4166,-1.4173,-1.4181,-1.4186,-1.4189,-1.4198,-1.4175,-1.4185,-1.4199,-1.4206,-1.4219,-1.4231,-1.4238,-1.4235,-1.4215,-1.4211,-1.4219,-1.4227,-1.4233,-1.4232,-1.4115,-1.4209,-1.4208,-1.4208,-1.4207,-1.4207,-1.4233,-1.425,-1.4247,-1.4259,-1.4259,-1.4262,-1.4277,-1.4268,-1.4279,-1.4288,-1.4274,-1.4292,-1.429,-1.4297,-1.4297,-1.4311,-1.4295,-1.4306,-1.431,-1.4313,-1.4319,-1.423,-1.4312,-1.4312,-1.4311,-1.4311,-1.4311,0,-1.4323,-1.4319,-1.4331,-1.4336,-1.4345,-1.4323,-1.4325,-1.4335,-1.4351,-1.4351,-1.436,-1.4376,-1.4388,-1.4378,-1.4388,-1.4401,-1.4392,-1.4404,-1.4404,-1.4404,-1.4332,-1.4324,-1.4412,-1.4412,-1.4412,-1.4412,-1.4412,-1.4412,-1.4371,-1.4399,-1.4389,-1.4417,-1.4413,-1.443,-1.4433,-1.4436,-1.4436,-1.4455,-1.4465,-1.4458,-1.4454,-1.4463,-1.4473,-1.447,-1.4476,-1.4492,-1.4486,-1.4419,-1.4409,-1.44,-1.4393,-1.4493,-1.4493,-1.4557,-1.4558,-1.4558]},{"header":{"parameterUnit":"m.s-1","parameterCategory":1,"la1":30.2991,"la2":30.254,"lo1":-89.0895,"lo2":-89.0444,"dx":0.0017,"dy":0.0017,"nx":28,"ny":28,"refTime":"2022-12-18T15:00:00:Z","depth":0,"parameterNumber":3,"parameterNumberName":"V-component_of_WINDS"},"data":[0,0,0,0,0,0,0,0,0,0,0,0,0,0,0,0,0,0,0,0,0,0,0,0,0,0,0,0,0,0,0,0,0,0,0,0,0,0,0,0,0,0,0,0,0,0,0,0,0,0,0,0,0,0,0,0,0,0,-4.6557,-4.6557,0,-4.6598,-4.6598,-4.6599,-4.6564,-4.6563,-4.6562,-4.656,-4.6598,-4.6601,-4.6603,0,0,0,0,0,0,0,0,0,0,0,0,0,-4.6446,-4.6448,-4.6557,-4.6557,-4.6558,-4.6598,-4.6598,-4.6599,-4.6565,-4.6563,-4.6561,-4.656,-4.6598,-4.66,-4.6603,0,0,0,0,0,0,0,0,0,0,0,0,0,-4.6491,-4.6449,-4.6557,-4.6546,-4.6545,-4.6598,-4.6598,-4.6599,-4.6565,-4.6563,-4.6561,-4.6559,-4.6597,-4.66,-4.6603,-4.6668,0,0,-4.6614,-4.6616,0,0,0,0,0,0,0,0,-4.6489,-4.6495,-4.6547,-4.6547,-4.6546,-4.6574,-4.6573,-4.6622,-4.6566,-4.6557,-4.656,-4.6558,-4.6592,-4.6595,-4.6608,-4.6669,-4.6671,-4.6614,-4.6617,-4.6618,-4.6619,0,0,0,0,0,0,0,-4.6486,-4.6493,-4.6573,-4.6548,-4.6547,-4.6538,-4.6542,-4.6582,-4.6586,-4.6558,-4.6556,-4.6561,-4.6591,-4.6604,-4.6608,-4.6672,-4.6614,-4.6617,-4.662,-4.6621,-4.6789,-4.6791,0,0,0,0,0,0,-4.6484,-4.6491,-4.6572,-4.6574,-4.6512,-4.6542,-4.6546,-4.6567,-4.6585,-4.6586,-4.6563,-4.6559,-4.6599,-4.6604,-4.6609,-4.6687,-4.6618,-4.6621,-4.6623,-4.6787,-4.6789,-4.6792,0,0,0,0,0,0,-4.6482,-4.6492,-4.657,-4.6532,-4.6541,-4.6546,-4.657,-4.6569,-4.6582,-4.6589,-4.6589,-4.6576,-4.6598,-4.6605,-4.6654,-4.6688,-4.6623,-4.6626,-4.6784,-4.6787,-4.6791,-4.6842,0,0,0,0,0,0,-4.6479,-4.6491,-4.6516,-4.6533,-4.6544,-4.6615,-4.6572,-4.6571,-4.6589,-4.6585,-4.6602,-4.6602,-4.6597,-4.6649,-4.6657,-4.6691,-4.6629,-4.6781,-4.6785,-4.679,-4.6837,-4.6846,-4.6855,0,0,0,0,0,-4.6475,-4.6528,-4.6518,-4.6528,-4.6575,-4.6617,-4.6623,-4.6617,-4.6592,-4.6617,-4.6621,-4.6602,-4.6682,-4.6654,-4.6663,-4.6699,-4.6779,-4.6784,-4.6789,-4.6833,-4.6845,-4.6854,0,0,0,0,0,0,-4.6513,-4.653,-4.6519,-4.6579,-4.6597,-4.6611,-4.6642,-4.6629,-4.6653,-4.6648,-4.6638,-4.6642,-4.6695,-4.6701,-4.667,-4.6762,-4.6726,-4.6734,-4.6756,-4.6767,-4.6776,-4.6774,-4.6632,0,0,0,0,0,-4.6529,-4.6563,-4.6575,-4.6626,-4.6636,-4.6638,-4.6656,-4.665,-4.6667,-4.6675,-4.6682,-4.67,-4.6729,-4.6748,-4.6775,-4.6837,-4.6841,-4.6866,-4.6875,-4.6882,-4.6889,-4.6923,-4.6935,-4.6809,-4.6809,-4.6809,0,0,-4.6561,-4.6574,-4.6596,-4.6635,-4.6648,-4.6682,-4.6645,-4.6682,-4.6707,-4.668,-4.6728,-4.6734,-4.6752,-4.6809,-4.6834,-4.6816,-4.6924,-4.6889,-4.6895,-4.6898,-4.693,-4.6942,-4.6952,-4.6813,-4.6812,-4.6812,0,0,-4.6638,-4.6651,-4.6697,-4.6711,-4.6733,-4.6734,-4.6744,-4.6761,-4.6765,-4.6813,-4.6793,-4.6822,-4.6873,-4.6887,-4.6901,-4.6984,-4.6967,-4.6993,-4.7039,-4.7073,-4.7083,-4.7091,-4.7122,-4.7133,-4.6999,-4.7,-4.7,0,-4.6675,-4.6728,-4.6721,-4.6761,-4.6779,-4.6757,-4.6802,-4.6816,-4.6845,-4.6857,-4.6837,-4.69,-4.6911,-4.6971,-4.6992,-4.7003,-4.7015,-4.6991,-4.7082,-4.7091,-4.7099,-4.7128,-4.7139,-4.7003,-4.7002,-4.7002,-4.7002,0,-4.6773,-4.681,-4.6843,-4.6874,-4.6895,-4.6937,-4.6936,-4.6958,-4.695,-4.6953,-4.7002,-4.7014,-4.7044,-4.7058,-4.7049,-4.7117,-4.7105,-4.7084,-4.7047,-4.7114,-4.7141,-4.7152,-4.7007,-4.7006,-4.7005,-4.7004,0,0,-4.6875,-4.6902,-4.6915,-4.6929,-4.6951,-4.6979,-4.702,-4.7051,-4.707,-4.709,-4.7125,-4.7168,-4.7149,-4.7165,-4.7158,-4.7187,-4.7253,-4.7162,-4.7162,-4.7179,-4.733,-4.7347,-4.736,-4.7242,-4.7244,-4.7246,-4.7328,0,-4.6954,-4.7028,-4.7023,-4.7092,-4.7126,-4.7106,-4.7142,-4.7159,-4.7163,-4.7191,-4.7194,-4.7226,-4.7197,-4.7207,-4.7235,-4.724,-4.7284,-4.7233,-4.7274,-4.7275,-4.7271,-4.7374,-4.7392,-4.7469,-4.7339,-4.7341,-4.7342,0,-4.7056,-4.7082,-4.7155,-4.7173,-4.7187,-4.722,-4.7248,-4.7276,-4.7295,-4.7295,-4.7314,-4.7302,-4.7343,-4.7305,-4.7361,-4.7327,-4.7343,-4.7348,-4.7351,-4.7355,-4.7314,-4.7382,-4.7493,-4.7505,-4.7358,-4.7357,-4.7356,0,-4.7125,-4.7178,-4.7229,-4.7241,-4.7263,-4.7287,-4.7297,-4.7314,-4.7333,-4.7357,-4.7369,-4.7397,-4.7413,-4.7434,-4.743,-4.7403,-4.7488,-4.745,-4.749,-4.749,-4.7509,-4.7508,-4.7626,-4.7518,-4.7518,-4.7517,-4.7517,0,-4.7214,-4.726,-4.726,-4.7292,-4.7342,-4.7336,-4.7386,-4.7393,-4.7408,-4.744,-4.7423,-4.7453,-4.7445,-4.7475,-4.7472,-4.7519,-4.7526,-4.7527,-4.7526,-4.753,-4.753,-4.7541,-4.7536,-4.752,-4.752,-4.7519,-4.7519,0,-4.73,-4.7302,-4.7357,-4.7374,-4.7379,-4.7416,-4.743,-4.7459,-4.7462,-4.7502,-4.7511,-4.7515,-4.7549,-4.7547,-4.7584,-4.7582,-4.7642,-4.7633,-4.7636,-4.7635,-4.7675,-4.7672,-4.7805,-4.7823,-4.7702,-4.7703,-4.7704,0,-4.7358,-4.7393,-4.7414,-4.7435,-4.7448,-4.7481,-4.7501,-4.7496,-4.7517,-4.7542,-4.7568,-4.7601,-4.7627,-4.7682,-4.7687,-4.7716,-4.7709,-4.7754,-4.7713,-4.7716,-4.7711,-4.771,-4.7714,-4.7762,-4.7764,-4.7765,-4.7766,0,-4.746,-4.746,-4.749,-4.7521,-4.7546,-4.757,-4.7591,-4.7609,-4.7606,-4.7631,-4.7666,-4.7686,-4.7726,-4.7759,-4.7787,-4.7795,-4.7781,-4.7778,-4.7789,-4.7794,-4.7795,-4.7796,-4.7659,-4.7775,-4.7774,-4.7774,-4.7773,-4.7773,-4.7534,-4.7565,-4.7586,-4.762,-4.7636,-4.7657,-4.7686,-4.7693,-4.7723,-4.7756,-4.775,-4.779,-4.7808,-4.7844,-4.7856,-4.7887,-4.7871,-4.7886,-4.789,-4.7895,-4.79,-4.7789,-4.7891,-4.7891,-4.7891,-4.7891,-4.789,0,-4.7637,-4.7649,-4.7681,-4.7713,-4.774,-4.7725,-4.7748,-4.7772,-4.7808,-4.7826,-4.7853,-4.7894,-4.7926,-4.7934,-4.7964,-4.7987,-4.7981,-4.7995,-4.7994,-4.7997,-4.7912,-4.79,-4.8,-4.8,-4.8,-4.8,-4.8,-4.8,-4.7693,-4.7745,-4.7747,-4.7807,-4.7818,-4.7859,-4.7874,-4.7893,-4.7908,-4.7955,-4.7982,-4.7988,-4.8002,-4.8034,-4.8062,-4.8064,-4.8076,-4.8094,-4.8092,-4.8013,-4.8002,-4.7992,-4.7981,-4.8096,-4.8096,-4.8175,-4.8175,-4.8176]}]]